This demonstration page uses our WeatherBlox Daily Observations layout. Learn more.

Left ArrowRight Arrow

31.31129, -92.44514

Hourly Observations for September 15, 2020

Temp ( °F °C ) Dew Point ( °F °C ) Humidity (%) Winds ( mph kmh ) Pressure ( in mb ) Visibility ( mi km ) Precip ( " mm )
12:53 am 00:53 Mostly Clear 79 26.1 72 22.2 79 79 NNE 8 13 29.98 1015 10 16 0.00 0.00
1:53 am 01:53 Clear 77 25 72 22.2 85 85 NNE 7 11 29.96 1015 10 16 0.00 0.00
2:53 am 02:53 Clear 77 25 72 22.2 85 85 NNE 8 13 29.96 1014 10 16 0.00 0.00
3:53 am 03:53 Clear 76 24.4 72 22.2 88 88 NNE 8 13 29.95 1014 10 16 0.00 0.00
4:53 am 04:53 Clear 76 24.4 72 22.2 88 88 NNE 9 15 29.94 1014 10 16 0.00 0.00
5:53 am 05:53 Clear 75 23.9 71 21.7 88 88 N 7 11 29.96 1015 10 16 0.00 0.00
6:53 am 06:53 Clear 75 23.9 71 21.7 88 88 NNE 10 17 29.98 1015 10 16 0.00 0.00
7:53 am 07:53 Mostly Sunny 76 24.4 71 21.7 85 85 N 9 15 29.99 1016 9 14 0.00 0.00
8:53 am 08:53 Sunny 79 26.1 71 21.7 77 77 N 12 19 29.98 1015 10 16 0.00 0.00
9:53 am 09:53 Sunny 83 28.3 72 22.2 70 70 N 9 15 29.97 1015 10 16 0.00 0.00
10:53 am 10:53 Sunny 86 30 71 21.7 61 61 N 12 19 29.98 1015 10 16 0.00 0.00
11:53 am 11:53 Mostly Sunny 89 31.7 72 22.2 57 57 NE 10 17 29.97 1015 10 16 0.00 0.00
12:53 pm 12:53 Mostly Sunny 90 32.2 70 21.1 52 52 NE 12 19 29.95 1014 10 16 0.00 0.00
1:53 pm 13:53 Mostly Sunny 91 32.8 70 21.1 50 50 NE 12 19 29.92 1013 10 16 0.00 0.00
2:53 pm 14:53 Mostly Sunny 92 33.3 70 21.1 49 49 NE 8 13 29.90 1013 10 16 0.00 0.00
3:53 pm 15:53 Mostly Sunny 92 33.3 71 21.7 51 51 N 15 24 29.88 1012 10 16 0.00 0.00
4:53 pm 16:53 Partly Cloudy 92 33.3 71 21.7 51 51 N 10 17 29.87 1012 10 16 0.00 0.00
5:53 pm 17:53 Mostly Cloudy with Light Rain 87 30.6 71 21.7 59 59 N 14 22 29.88 1012 10 16 0.00 0.00
6:53 pm 18:53 Sunny 84 28.9 72 22.2 67 67 NNE 7 11 29.88 1012 10 16 0.00 0.00
7:53 pm 19:53 Mostly Clear 82 27.8 72 22.2 72 72 N 5 7 29.90 1013 9 14 0.00 0.00
8:53 pm 20:53 Mostly Clear 81 27.2 73 22.8 77 77 N 7 11 29.91 1013 10 16 0.00 0.00
9:53 pm 21:53 Mostly Clear 81 27.2 72 22.2 74 74 N 5 7 29.92 1013 10 16 0.00 0.00
10:53 pm 22:53 Clear 80 26.7 73 22.8 79 79 N 6 9 29.92 1013 10 16 0.00 0.00
11:53 pm 23:53 Clear 79 26.1 72 22.2 79 79 N 6 9 29.90 1013 10 16 0.00 0.00

Powered by AerisWeather